Weather History for Denver Centennial, CO

Change the Weather History Date:

Friday, March 21, 2014

  Actual Average Record
Temperature  
Mean Temperature 34 °F -  
Max Temperature 46 °F 53 °F 73 °F (1999)
Min Temperature 22 °F 28 °F 9 °F (2006)
Degree Days  
Heating Degree Days 31    
Month to date heating degree days 555  
Moisture  
Dew Point 16 °F    
Average Humidity 44    
Maximum Humidity 68    
Minimum Humidity 19    
Precipitation  
Precipitation 0.00 in - - ()
Month to date precipitation 0.72  
Year to date precipitation 1.57  
Sea Level Pressure  
Sea Level Pressure 30.04 in    
Wind  
Wind Speed 7 mph (SE)    
Max Wind Speed 17 mph    
Max Gust Speed 22 mph    
Visibility 10 miles    
Events      
Averages and records for this station are not official NWS values.
T = Trace of Precipitation, MM = Missing Value Source: NWS Daily Summary

Daily Weather History Graph

Daily Weather History Graph

Search for Another Location

Airport:

Trip Planner

Search our weather history database for the weather conditions in past years. The results will help you decide how hot, cold, wet, or windy it might be!

Date:

Astronomy

Mar. 21, 2014 Rise Set
Actual Time 7:01 AM MDT 7:12 PM MDT
Civil Twilight 6:34 AM MDT 7:39 PM MDT
Nautical Twilight 6:02 AM MDT 8:10 PM MDT
Astronomical Twilight 5:30 AM MDT 8:42 PM MDT
Moon No Moon Rise 9:56 AM MDT (3/21)
Length of Visible Light 13h 05m
Length of Day
12h 11m
Waning Gibbous, 75% of the Moon is Illuminated
Mar 21
Waning Gibbous
Mar 23
Last Quarter
Mar 30
New
Apr 7
First Quarter
Apr 15
Full

Hourly Weather History & Observations

Time (MDT) Temp. Windchill Dew Point Humidity Pressure Visibility Wind Dir Wind Speed Gust Speed Precip Events Conditions
12:53 AM 44.1 °F 41.5 °F 5.0 °F 20% 29.78 in 10.0 mi SSW 4.6 mph - N/A   Mostly Cloudy
1:53 AM 43.0 °F 38.8 °F 5.0 °F 21% 29.78 in 10.0 mi WSW 6.9 mph - N/A   Mostly Cloudy
2:53 AM 39.0 °F 34.0 °F 8.1 °F 28% 29.80 in 10.0 mi SW 6.9 mph - N/A   Scattered Clouds
3:53 AM 30.0 °F 21.7 °F 18.0 °F 61% 29.92 in 10.0 mi North 9.2 mph - N/A   Partly Cloudy
4:53 AM 27.0 °F 20.5 °F 17.1 °F 66% 29.96 in 10.0 mi NNW 5.8 mph - N/A   Clear
5:53 AM 24.1 °F 18.2 °F 15.1 °F 69% 29.99 in 10.0 mi SSW 4.6 mph - N/A   Clear
6:53 AM 24.1 °F 16.0 °F 15.1 °F 69% 30.01 in 10.0 mi South 6.9 mph - N/A   Partly Cloudy
7:53 AM 28.0 °F 24.2 °F 17.1 °F 63% 30.03 in 10.0 mi SE 3.5 mph - N/A   Partly Cloudy
8:53 AM 32.0 °F 24.8 °F 15.1 °F 50% 30.03 in 10.0 mi South 8.1 mph - N/A   Partly Cloudy
9:53 AM 35.1 °F 31.0 °F 14.0 °F 42% 30.04 in 10.0 mi Variable 4.6 mph - N/A   Mostly Cloudy
10:53 AM 37.9 °F 32.7 °F 14.0 °F 38% 30.07 in 10.0 mi NE 6.9 mph - N/A   Mostly Cloudy
11:53 AM 39.0 °F 32.8 °F 16.0 °F 39% 30.08 in 10.0 mi NNE 9.2 mph - N/A   Mostly Cloudy
12:53 PM 39.0 °F 35.7 °F 17.1 °F 41% 30.08 in 10.0 mi ENE 4.6 mph - N/A   Mostly Cloudy
1:53 PM 41.0 °F - 17.1 °F 38% 30.06 in 10.0 mi Calm Calm - N/A   Mostly Cloudy
2:53 PM 43.0 °F - 19.0 °F 38% 30.06 in 10.0 mi Calm Calm - N/A   Mostly Cloudy
3:33 PM 42.1 °F 37.1 °F 18.0 °F 38% 30.05 in 10.0 mi East 8.1 mph - N/A   Mostly Cloudy
3:53 PM 43.0 °F 38.8 °F 18.0 °F 37% 30.09 in 10.0 mi East 6.9 mph - N/A   Mostly Cloudy
4:53 PM 43.0 °F 39.5 °F 18.0 °F 37% 30.10 in 10.0 mi East 5.8 mph - N/A   Mostly Cloudy
5:53 PM 42.1 °F 36.6 °F 18.0 °F 38% 30.13 in 10.0 mi ESE 9.2 mph - N/A   Mostly Cloudy
6:53 PM 39.0 °F 31.8 °F 18.0 °F 43% 30.14 in 10.0 mi ESE 11.5 mph - N/A   Mostly Cloudy
7:53 PM 37.9 °F 30.5 °F 17.1 °F 43% 30.15 in 10.0 mi SE 11.5 mph - N/A   Overcast
8:53 PM 37.0 °F 27.7 °F 16.0 °F 42% 30.16 in 10.0 mi SE 16.1 mph - N/A   Overcast
9:53 PM 36.0 °F 29.0 °F 16.0 °F 44% 30.15 in 10.0 mi SE 9.2 mph - N/A   Mostly Cloudy
10:53 PM 34.0 °F 27.2 °F 18.0 °F 52% 30.14 in 10.0 mi SE 8.1 mph - N/A   Mostly Cloudy
11:53 PM 35.1 °F 26.9 °F 19.9 °F 54% 30.12 in 10.0 mi SSE 11.5 mph - N/A   Mostly Cloudy